Home   Weather   Cooperstown   Past weeks
Flag for USA

Past Weather in Cooperstown, New York, USA — Yesterday and Last 2 Weeks

Now
40 °F

Mostly cloudy.


Feels Like: 34 °F
Forecast: 45 / 35 °F
Wind: 8 mph from Southeast

Location: Griffiss Air Force Base / Rome

Current Time: Mar 31, 2020 at 9:32:49 am

Latest Report: Mar 31, 2020 at 8:53 am


Visibility: 10 mi

Pressure: 30.07 "Hg

Humidity: 89%

Dew Point: 37 °F

Location of CooperstownLocation

Past Weather in Cooperstown — Graph

°F

Cooperstown Temperature Yesterday

Maximum temperature yesterday: 50 °F (at 2:17 pm)
Minimum temperature yesterday: 42 °F (at 10:34 pm)
Average temperature yesterday: 45 °F

High & Low Weather Summary for the Past Weeks

 TemperatureHumidityPressure
High71 °F (Mar 20, 2:53 pm)96% (Mar 23, 10:53 pm)30.73 "Hg (Mar 23, 10:53 pm)
Low16 °F (Mar 22, 6:53 am)28% (Mar 16, 3:53 pm)29.58 "Hg (Mar 20, 2:53 pm)
Average39 °F73%30.15 "Hg
* Reported Mar 16 7:53 am — Mar 31 7:53 am, Cooperstown. Weather by CustomWeather, © 2020

Note: Actual official high and low records may vary slightly from our data, if they occured in-between our weather recording intervals... More about our weather records

Cooperstown Weather History for the Previous 24 Hours

Scroll right to see more
 ConditionsComfort  
Time TempWeatherWind HumidityBarometerVisibility
7:53 am
Tue, Mar 31
40 °FLow clouds.6 mph89%30.06 "Hg9 mi
7:31 am39 °FFog.5 mph93%30.05 "Hg2 mi
6:53 am40 °FLight rain. Fog.6 mph93%30.04 "Hg3 mi
6:31 am40 °FFog.8 mph93%30.03 "Hg5 mi
6:18 am41 °FLight rain. Fog.3 mph96%30.02 "Hg5 mi
6:03 am41 °FLight rain. Mostly cloudy.3 mph93%30.02 "Hg8 mi
4:53 am41 °FOvercast.3 mph93%30.00 "Hg9 mi
3:53 am41 °FLight rain. Fog.No wind96%30.00 "Hg6 mi
2:53 am42 °FLight rain. Overcast.No wind92%29.99 "Hg10 mi
1:53 am42 °FLight rain. Overcast.No wind92%29.99 "Hg8 mi
1:36 am42 °FLight rain. Mostly cloudy.No wind92%29.99 "Hg8 mi
1:05 am42 °FLight rain. Fog.3 mph92%29.99 "Hg5 mi
12:53 am42 °FLight rain. Fog.3 mph92%29.99 "Hg6 mi
11:53 pm
Mon, Mar 30
42 °FLight rain. Overcast.3 mph92%29.99 "Hg10 mi
10:53 pm42 °FLight rain. Overcast.No wind92%29.99 "Hg9 mi
10:34 pm42 °FLight rain. Overcast.No wind92%29.99 "Hg10 mi
9:53 pm43 °FLight rain. Overcast.No wind89%29.99 "Hg10 mi
8:53 pm43 °FLight rain. Mostly cloudy.No wind93%29.98 "Hg7 mi
7:53 pm44 °FLight rain. Mostly cloudy.No wind89%29.96 "Hg10 mi
7:37 pm44 °FLight rain. Mostly cloudy.No wind85%29.95 "Hg10 mi
6:53 pm44 °FMostly cloudy.5 mph85%29.94 "Hg10 mi
6:01 pm46 °FLight rain. Mostly cloudy.7 mph83%29.91 "Hg10 mi
4:53 pm47 °FLight rain. Mostly cloudy.7 mph83%29.89 "Hg10 mi
4:21 pm48 °FLight rain. Cloudy.9 mph80%29.89 "Hg9 mi
3:53 pm48 °FLight rain. Cloudy.12 mph80%29.88 "Hg6 mi
3:31 pm48 °FLight rain. Mostly cloudy.9 mph80%29.87 "Hg10 mi
2:53 pm50 °FLight rain. Cloudy.12 mph71%29.86 "Hg10 mi
2:17 pm50 °FBroken clouds.9 mph74%29.86 "Hg10 mi
1:53 pm49 °FCloudy.8 mph77%29.87 "Hg10 mi
12:53 pm48 °FLight rain. More clouds than sun.5 mph83%29.87 "Hg10 mi
12:32 pm48 °FLight rain. More clouds than sun.No wind83%29.86 "Hg10 mi
12:06 pm47 °FLight rain. Mostly cloudy.3 mph90%29.87 "Hg10 mi
11:53 am47 °FLight rain. Cloudy.5 mph90%29.87 "Hg10 mi
10:53 am45 °FRain. Fog.6 mph93%29.87 "Hg4 mi
9:53 am44 °FRain. Fog.8 mph93%29.86 "Hg4 mi
9:15 am44 °FLight rain. Cloudy.8 mph89%29.87 "Hg9 mi
Weather by CustomWeather, © 2020

See weather overview

Advertising